ANA986 RJOO-RJTT

Flight info

Callsign ANA986
Flight time 0h 42m
Altitude 25000
Route ASUKA DCT SHTLE Y71 XAC
Aircraft A21N/M-SDE3FGHIRWY/LB1

Departure

Time 2026-05-08 15:02
Airport Osaka Itami International Airport (RJOO)

Arrival

Time 2026-05-08 15:45
Airport Tokyo Haneda International Airport (RJTT)
Time Latitude Longitude Altitude Speed Heading
2026-05-08 14:44 34.78740 135.44266 56 ft 0 kts 58°
2026-05-08 14:51 34.78734 135.44253 56 ft 2 kts 58°
2026-05-08 14:51 34.78726 135.44238 56 ft 2 kts 58°
2026-05-08 14:51 34.78719 135.44223 56 ft 2 kts 58°
2026-05-08 14:52 34.78711 135.44206 56 ft 2 kts 58°
2026-05-08 14:52 34.78706 135.44173 56 ft 2 kts 116°
2026-05-08 14:52 34.78715 135.44159 56 ft 2 kts 141°
2026-05-08 14:53 34.78726 135.44147 56 ft 1 kts 132°
2026-05-08 14:53 34.78727 135.44144 56 ft 0 kts 132°
2026-05-08 14:53 34.78727 135.44145 56 ft 0 kts 132°
2026-05-08 14:55 34.78726 135.44145 56 ft 0 kts 132°
2026-05-08 14:55 34.78718 135.44156 56 ft 3 kts 135°
2026-05-08 14:55 34.78692 135.44186 56 ft 6 kts 135°
2026-05-08 14:56 34.78644 135.44208 56 ft 8 kts 187°
2026-05-08 14:56 34.78584 135.44203 56 ft 8 kts 162°
2026-05-08 14:56 34.78536 135.44251 56 ft 9 kts 134°
2026-05-08 14:56 34.78489 135.44307 56 ft 9 kts 135°
2026-05-08 14:57 34.78426 135.44334 56 ft 10 kts 178°
2026-05-08 14:57 34.78356 135.44334 56 ft 10 kts 179°
2026-05-08 14:57 34.78282 135.44336 56 ft 10 kts 179°
2026-05-08 14:57 34.78207 135.44336 56 ft 10 kts 178°
2026-05-08 14:58 34.78141 135.44377 56 ft 11 kts 135°
2026-05-08 14:58 34.78086 135.44446 56 ft 11 kts 135°
2026-05-08 14:58 34.78029 135.44514 56 ft 11 kts 135°
2026-05-08 14:58 34.77965 135.44592 56 ft 14 kts 135°
2026-05-08 14:59 34.77893 135.44679 56 ft 14 kts 135°
2026-05-08 14:59 34.77745 135.44858 56 ft 14 kts 135°
2026-05-08 14:59 34.77663 135.44928 56 ft 14 kts 155°
2026-05-08 15:00 34.77594 135.44968 56 ft 9 kts 155°
2026-05-08 15:00 34.77531 135.45004 56 ft 10 kts 155°
2026-05-08 15:00 34.77464 135.45013 56 ft 10 kts 204°
2026-05-08 15:00 34.77437 135.44940 56 ft 9 kts 284°
2026-05-08 15:01 34.77463 135.44893 56 ft 3 kts 314°
2026-05-08 15:01 34.77502 135.44844 56 ft 27 kts 315°
2026-05-08 15:01 34.77817 135.44463 56 ft 98 kts 315°
2026-05-08 15:01 34.78447 135.43698 56 ft 157 kts 315°
2026-05-08 15:02 34.79280 135.42691 418 ft 173 kts 315°
2026-05-08 15:02 34.80132 135.41661 1023 ft 177 kts 313°
2026-05-08 15:02 34.80653 135.40338 1666 ft 179 kts 274°
2026-05-08 15:02 34.80345 135.38882 2175 ft 183 kts 236°
2026-05-08 15:03 34.79338 135.37991 2635 ft 188 kts 196°
2026-05-08 15:03 34.78022 135.37972 3134 ft 192 kts 173°
2026-05-08 15:03 34.76690 135.38335 3525 ft 203 kts 168°
2026-05-08 15:03 34.75288 135.38806 3820 ft 219 kts 167°
2026-05-08 15:04 34.73781 135.39333 4120 ft 235 kts 167°
2026-05-08 15:04 34.72170 135.40085 4359 ft 261 kts 147°
2026-05-08 15:04 34.70975 135.41835 4681 ft 281 kts 111°
2026-05-08 15:04 34.70678 135.44189 5149 ft 289 kts 82°
2026-05-08 15:05 34.70908 135.46639 5830 ft 293 kts 78°
2026-05-08 15:05 34.71192 135.49104 6503 ft 297 kts 77°
2026-05-08 15:05 34.71484 135.51608 7168 ft 303 kts 78°
2026-05-08 15:05 34.71771 135.54158 7833 ft 308 kts 79°
2026-05-08 15:06 34.72051 135.56757 8495 ft 313 kts 79°
2026-05-08 15:06 34.72328 135.59393 9148 ft 317 kts 80°
2026-05-08 15:06 34.72605 135.62059 9773 ft 322 kts 81°
2026-05-08 15:06 34.72884 135.64780 10354 ft 328 kts 82°
2026-05-08 15:07 34.73175 135.67624 10689 ft 343 kts 83°
2026-05-08 15:07 34.73472 135.70577 10968 ft 359 kts 83°
2026-05-08 15:07 34.73779 135.73624 11238 ft 374 kts 83°
2026-05-08 15:07 34.74100 135.76811 11500 ft 389 kts 83°
2026-05-08 15:08 34.74434 135.80133 11847 ft 400 kts 84°
2026-05-08 15:08 34.74775 135.83519 12385 ft 405 kts 84°
2026-05-08 15:08 34.75120 135.86961 12941 ft 409 kts 84°
2026-05-08 15:08 34.75464 135.90402 13454 ft 414 kts 84°
2026-05-08 15:09 34.75813 135.93903 13978 ft 418 kts 84°
2026-05-08 15:09 34.76165 135.97441 14492 ft 422 kts 84°
2026-05-08 15:09 34.76521 136.01022 14988 ft 427 kts 84°
2026-05-08 15:09 34.76846 136.04622 15486 ft 430 kts 86°
2026-05-08 15:10 34.77119 136.08270 15973 ft 434 kts 86°
2026-05-08 15:10 34.77377 136.11906 16428 ft 438 kts 86°
2026-05-08 15:10 34.77638 136.15607 16847 ft 443 kts 86°
2026-05-08 15:10 34.77906 136.19403 17248 ft 448 kts 86°
2026-05-08 15:11 34.78173 136.23186 17659 ft 453 kts 86°
2026-05-08 15:11 34.78447 136.27055 18080 ft 457 kts 86°
2026-05-08 15:11 34.78721 136.30916 18490 ft 461 kts 86°
2026-05-08 15:11 34.78998 136.34821 18884 ft 465 kts 86°
2026-05-08 15:12 34.79274 136.38737 19266 ft 469 kts 86°
2026-05-08 15:12 34.79554 136.42743 19733 ft 471 kts 86°
2026-05-08 15:12 34.79832 136.46721 20260 ft 471 kts 87°
2026-05-08 15:12 34.80105 136.50658 20641 ft 474 kts 87°
2026-05-08 15:13 34.80383 136.54709 20988 ft 479 kts 87°
2026-05-08 15:13 34.80659 136.58745 21332 ft 483 kts 87°
2026-05-08 15:13 34.80936 136.62799 21688 ft 487 kts 87°
2026-05-08 15:13 34.81219 136.66968 22066 ft 489 kts 88°
2026-05-08 15:14 34.81497 136.71080 22438 ft 491 kts 88°
2026-05-08 15:14 34.81776 136.75240 22764 ft 495 kts 88°
2026-05-08 15:14 34.82059 136.79456 23080 ft 498 kts 89°
2026-05-08 15:14 34.82339 136.83643 23392 ft 501 kts 89°
2026-05-08 15:15 34.82618 136.87882 23693 ft 504 kts 89°
2026-05-08 15:15 34.82850 136.92158 23991 ft 506 kts 92°
2026-05-08 15:15 34.82831 136.96471 24296 ft 505 kts 98°
2026-05-08 15:15 34.82513 137.00732 24605 ft 504 kts 103°
2026-05-08 15:16 34.82046 137.04967 24868 ft 506 kts 104°
2026-05-08 15:16 34.81543 137.09169 24892 ft 505 kts 104°
2026-05-08 15:16 34.81040 137.13393 24886 ft 504 kts 104°
2026-05-08 15:16 34.80546 137.17616 24879 ft 504 kts 104°
2026-05-08 15:17 34.80060 137.21843 24874 ft 503 kts 104°
2026-05-08 15:17 34.79578 137.26085 24870 ft 503 kts 104°
2026-05-08 15:17 34.79101 137.30298 24867 ft 503 kts 104°
2026-05-08 15:17 34.78619 137.34555 24865 ft 503 kts 104°
2026-05-08 15:18 34.78143 137.38754 24863 ft 502 kts 104°
2026-05-08 15:18 34.77667 137.42938 24862 ft 502 kts 104°
2026-05-08 15:18 34.77184 137.47179 24861 ft 501 kts 104°
2026-05-08 15:18 34.76706 137.51353 24860 ft 501 kts 104°
2026-05-08 15:19 34.76224 137.55550 24858 ft 501 kts 104°
2026-05-08 15:19 34.75741 137.59740 24858 ft 500 kts 104°
2026-05-08 15:19 34.75258 137.63908 24857 ft 500 kts 104°
2026-05-08 15:19 34.74788 137.67963 24852 ft 500 kts 104°
2026-05-08 15:20 34.74351 137.72134 24854 ft 501 kts 103°
2026-05-08 15:20 34.73953 137.76378 24854 ft 500 kts 102°
2026-05-08 15:20 34.73569 137.80585 24853 ft 500 kts 102°
2026-05-08 15:20 34.73184 137.84767 24849 ft 500 kts 102°
2026-05-08 15:21 34.72790 137.88957 24844 ft 500 kts 102°
2026-05-08 15:21 34.72390 137.93140 24836 ft 500 kts 102°
2026-05-08 15:21 34.71981 137.97362 24828 ft 500 kts 102°
2026-05-08 15:21 34.71609 138.01562 24821 ft 501 kts 100°
2026-05-08 15:22 34.71417 138.05800 24811 ft 501 kts 96°
2026-05-08 15:22 34.71395 138.10022 24805 ft 501 kts 94°
2026-05-08 15:22 34.71422 138.14290 24800 ft 501 kts 94°
2026-05-08 15:22 34.71456 138.18504 24797 ft 501 kts 94°
2026-05-08 15:23 34.71486 138.22723 24795 ft 501 kts 94°
2026-05-08 15:23 34.71507 138.26962 24794 ft 501 kts 94°
2026-05-08 15:23 34.71523 138.31253 24794 ft 501 kts 94°
2026-05-08 15:23 34.71536 138.35465 24794 ft 500 kts 94°
2026-05-08 15:24 34.71543 138.39703 24793 ft 500 kts 94°
2026-05-08 15:24 34.71550 138.43903 24793 ft 500 kts 94°
2026-05-08 15:24 34.71554 138.48126 24793 ft 500 kts 94°
2026-05-08 15:24 34.71558 138.52405 24691 ft 501 kts 94°
2026-05-08 15:25 34.71560 138.56635 24403 ft 497 kts 94°
2026-05-08 15:25 34.71563 138.60782 24052 ft 494 kts 94°
2026-05-08 15:25 34.71563 138.64963 23624 ft 491 kts 94°
2026-05-08 15:25 34.71563 138.69107 23168 ft 486 kts 95°
2026-05-08 15:26 34.71560 138.73158 22861 ft 480 kts 95°
2026-05-08 15:26 34.71554 138.77263 22835 ft 481 kts 95°
2026-05-08 15:26 34.71546 138.81279 22811 ft 481 kts 95°
2026-05-08 15:26 34.71534 138.85370 22787 ft 481 kts 95°
2026-05-08 15:27 34.71520 138.89449 22763 ft 480 kts 95°
2026-05-08 15:27 34.71504 138.93527 22723 ft 478 kts 95°
2026-05-08 15:27 34.71488 138.97517 22421 ft 473 kts 95°
2026-05-08 15:27 34.71470 139.01495 21954 ft 470 kts 95°
2026-05-08 15:28 34.71450 139.05489 21707 ft 469 kts 95°
2026-05-08 15:28 34.71429 139.09456 21392 ft 463 kts 95°
2026-05-08 15:28 34.71408 139.13364 21014 ft 457 kts 95°
2026-05-08 15:28 34.71387 139.17217 20644 ft 451 kts 95°
2026-05-08 15:29 34.71365 139.21008 20282 ft 445 kts 95°
2026-05-08 15:29 34.71341 139.24728 19926 ft 439 kts 94°
2026-05-08 15:29 34.71316 139.28450 19575 ft 434 kts 94°
2026-05-08 15:29 34.71291 139.32097 19231 ft 428 kts 94°
2026-05-08 15:30 34.71263 139.35680 18892 ft 423 kts 94°
2026-05-08 15:30 34.71264 139.39210 18555 ft 419 kts 89°
2026-05-08 15:30 34.71836 139.42691 18183 ft 418 kts 68°
2026-05-08 15:30 34.73116 139.45793 17870 ft 411 kts 58°
2026-05-08 15:31 34.74612 139.48764 17548 ft 406 kts 56°
2026-05-08 15:31 34.76098 139.51625 17235 ft 400 kts 56°
2026-05-08 15:31 34.77569 139.54501 16922 ft 395 kts 56°
2026-05-08 15:31 34.78977 139.57310 16618 ft 390 kts 57°
2026-05-08 15:32 34.80367 139.60127 16313 ft 385 kts 57°
2026-05-08 15:32 34.81719 139.62894 16014 ft 380 kts 57°
2026-05-08 15:32 34.83071 139.65671 15712 ft 375 kts 58°
2026-05-08 15:32 34.84376 139.68356 15393 ft 371 kts 58°
2026-05-08 15:33 34.85692 139.71065 15035 ft 368 kts 58°
2026-05-08 15:33 34.86974 139.73708 14672 ft 365 kts 58°
2026-05-08 15:33 34.88274 139.76387 14307 ft 362 kts 58°
2026-05-08 15:33 34.89551 139.79027 13949 ft 359 kts 58°
2026-05-08 15:34 34.90826 139.81663 13583 ft 356 kts 59°
2026-05-08 15:34 34.92079 139.84250 13108 ft 358 kts 59°
2026-05-08 15:34 34.93368 139.86836 12693 ft 357 kts 52°
2026-05-08 15:34 34.95149 139.88855 12278 ft 345 kts 22°
2026-05-08 15:35 34.97369 139.89632 11901 ft 320 kts 351°
2026-05-08 15:35 34.99433 139.89142 11531 ft 297 kts 329°
2026-05-08 15:35 35.01339 139.88170 11152 ft 294 kts 328°
2026-05-08 15:35 35.03249 139.87233 10754 ft 295 kts 331°
2026-05-08 15:36 35.05183 139.86415 10382 ft 295 kts 334°
2026-05-08 15:36 35.07152 139.85683 10023 ft 294 kts 337°
2026-05-08 15:36 35.09108 139.85014 9665 ft 292 kts 338°
2026-05-08 15:36 35.11046 139.84380 9309 ft 290 kts 340°
2026-05-08 15:37 35.12994 139.83756 8947 ft 288 kts 340°
2026-05-08 15:37 35.14950 139.83134 8586 ft 286 kts 341°
2026-05-08 15:37 35.16850 139.82535 8241 ft 283 kts 341°
2026-05-08 15:37 35.18751 139.81935 7888 ft 277 kts 341°
2026-05-08 15:38 35.20616 139.81346 7460 ft 272 kts 341°
2026-05-08 15:38 35.22430 139.80771 7013 ft 270 kts 341°
2026-05-08 15:38 35.24235 139.80197 6645 ft 265 kts 341°
2026-05-08 15:38 35.26010 139.79633 6283 ft 261 kts 342°
2026-05-08 15:39 35.27741 139.79083 5928 ft 256 kts 342°
2026-05-08 15:39 35.29458 139.78536 5576 ft 252 kts 342°
2026-05-08 15:39 35.31169 139.78107 5208 ft 251 kts 357°
2026-05-08 15:39 35.32822 139.78693 4831 ft 254 kts 29°
2026-05-08 15:40 35.34231 139.79952 4539 ft 249 kts 36°
2026-05-08 15:40 35.35576 139.81284 4197 ft 246 kts 36°
2026-05-08 15:40 35.36901 139.82565 3850 ft 237 kts 35°
2026-05-08 15:40 35.38176 139.83760 3498 ft 227 kts 34°
2026-05-08 15:41 35.39408 139.84891 3160 ft 218 kts 34°
2026-05-08 15:41 35.40637 139.85936 2792 ft 208 kts 21°
2026-05-08 15:41 35.42030 139.86183 2525 ft 206 kts 352°
2026-05-08 15:41 35.43372 139.85727 2376 ft 197 kts 339°
2026-05-08 15:42 35.44578 139.85008 2137 ft 189 kts 333°
2026-05-08 15:42 35.45707 139.84227 1869 ft 183 kts 331°
2026-05-08 15:42 35.46795 139.83444 1608 ft 176 kts 330°
2026-05-08 15:42 35.47832 139.82703 1385 ft 166 kts 330°
2026-05-08 15:43 35.48784 139.82030 1161 ft 151 kts 328°
2026-05-08 15:43 35.49652 139.81418 955 ft 139 kts 328°
2026-05-08 15:43 35.50473 139.80833 778 ft 136 kts 328°
2026-05-08 15:43 35.51300 139.80246 605 ft 135 kts 328°
2026-05-08 15:44 35.52111 139.79672 428 ft 135 kts 328°
2026-05-08 15:44 35.52929 139.79091 250 ft 134 kts 328°
2026-05-08 15:44 35.53723 139.78523 73 ft 133 kts 328°
2026-05-08 15:44 35.54440 139.78012 44 ft 97 kts 330°
2026-05-08 15:45 35.54880 139.77701 44 ft 47 kts 333°
2026-05-08 15:45 35.55158 139.77629 44 ft 34 kts
2026-05-08 15:45 35.55314 139.77629 44 ft 17 kts 359°
2026-05-08 15:45 35.55410 139.77580 44 ft 14 kts 330°
2026-05-08 15:46 35.55500 139.77516 44 ft 14 kts 330°
2026-05-08 15:46 35.55587 139.77454 44 ft 14 kts 330°
2026-05-08 15:46 35.55669 139.77396 44 ft 10 kts 331°
2026-05-08 15:46 35.55732 139.77351 44 ft 10 kts 330°
2026-05-08 15:47 35.55798 139.77313 44 ft 10 kts 360°
2026-05-08 15:47 35.55857 139.77367 44 ft 11 kts 57°
2026-05-08 15:47 35.55897 139.77447 44 ft 11 kts 60°
2026-05-08 15:47 35.55937 139.77533 44 ft 11 kts 60°
2026-05-08 15:48 35.56019 139.77705 44 ft 11 kts 60°
2026-05-08 15:48 35.56061 139.77794 44 ft 12 kts 60°
2026-05-08 15:48 35.56103 139.77882 44 ft 12 kts 60°
2026-05-08 15:49 35.56146 139.77974 44 ft 12 kts 60°
2026-05-08 15:49 35.56189 139.78064 44 ft 12 kts 60°
2026-05-08 15:49 35.56233 139.78157 44 ft 12 kts 60°
2026-05-08 15:49 35.56277 139.78250 44 ft 12 kts 59°
2026-05-08 15:50 35.56321 139.78343 44 ft 12 kts 60°
2026-05-08 15:50 35.56342 139.78413 44 ft 8 kts 92°
2026-05-08 15:50 35.56310 139.78470 44 ft 9 kts 145°
2026-05-08 15:50 35.56249 139.78514 44 ft 11 kts 150°
2026-05-08 15:51 35.56177 139.78566 44 ft 13 kts 150°
2026-05-08 15:51 35.56085 139.78630 44 ft 17 kts 150°
2026-05-08 15:51 35.55974 139.78709 44 ft 18 kts 150°
2026-05-08 15:51 35.55861 139.78790 44 ft 18 kts 150°
2026-05-08 15:52 35.55751 139.78868 44 ft 17 kts 150°
2026-05-08 15:52 35.55645 139.78943 44 ft 17 kts 150°
2026-05-08 15:52 35.55540 139.79018 44 ft 17 kts 150°
2026-05-08 15:52 35.55439 139.79089 44 ft 16 kts 150°
2026-05-08 15:53 35.55345 139.79156 44 ft 14 kts 150°
2026-05-08 15:53 35.55261 139.79216 44 ft 13 kts 150°
2026-05-08 15:53 35.55177 139.79275 44 ft 13 kts 150°
2026-05-08 15:53 35.55113 139.79312 44 ft 10 kts 173°
2026-05-08 15:54 35.55062 139.79277 44 ft 8 kts 237°
2026-05-08 15:54 35.55033 139.79208 44 ft 9 kts 257°
2026-05-08 15:54 35.55028 139.79146 44 ft 7 kts 253°
2026-05-08 15:54 35.55007 139.79094 44 ft 2 kts 239°
2026-05-08 15:55 35.55000 139.79079 44 ft 2 kts 239°
2026-05-08 15:55 35.54993 139.79065 44 ft 0 kts 239°